Regional Weather Roundup
Issued by NWS Charleston, WV

Home | Current Version | Previous Version | Text Only | Print | Product List | Glossary Off
Versions: 1 2 3 4 5 6 7 8 9 10 11 12 13 14 15 16 17 18 19 20 21 22 23 24 25 26 27

000
ASUS41 KRLX 231110
RWRRLX
West Virginia Regional Weather Roundup
National Weather Service Charleston WV
700 AM EDT WED APR 23 2014

Note: "fair" indicates few or no clouds below 12,000 feet with no
significant weather and/or obstructions to visibility.

WVZ003-231200-
Northern Panhandle of West Virginia

CITY           SKY/WX    TMP DP  RH WIND       PRES   REMARKS
WHEELING       CLOUDY    40  32  73 NW10      29.91R
$$

WVZ009-231200-
Northwest West Virginia

CITY           SKY/WX    TMP DP  RH WIND       PRES   REMARKS
PARKERSBURG    CLEAR     41  30  65 NW6       29.98R
$$

WVZ006-231200-
Western West Virginia

CITY           SKY/WX    TMP DP  RH WIND       PRES   REMARKS
HUNTINGTON     CLEAR     40  29  64 NW6       29.99R
$$

WVZ015-231200-
West Central West Virginia

CITY           SKY/WX    TMP DP  RH WIND       PRES   REMARKS
CHARLESTON     PTCLDY    42  33  70 W6        29.96R
$$

WVZ031-231200-
North Central West Virginia

CITY           SKY/WX    TMP DP  RH WIND       PRES   REMARKS
CLARKSBURG     PTCLDY    42  30  62 W5        29.90R
MORGANTOWN     CLOUDY    44  31  60 NW7       29.90R
$$

WVZ035-042-045-231200-
South Central West Virginia

CITY           SKY/WX    TMP DP  RH WIND       PRES   REMARKS
BECKLEY        CLOUDY    40  30  67 NW10      29.90R
BLUEFIELD      CLEAR     42  29  59 NW12G21   29.90R
LEWISBURG      PTCLDY    41  29  63 W6        29.86R
$$

WVZ047-231200-
Northern Mountains of West Virginia

CITY           SKY/WX    TMP DP  RH WIND       PRES   REMARKS
ELKINS         MOCLDY    40  29  64 NW9G20    29.88R
$$

WVZ052-231200-
Eastern Panhandle of West Virginia

CITY           SKY/WX    TMP DP  RH WIND       PRES   REMARKS
MARTINSBURG    CLOUDY    47  31  53 NW15      29.80R
PETERSBURG     PTCLDY    51  35  54 NW13G22   29.84R
$$



USA.gov is the U.S. government's official web portal to all federal, state and local government web resources and services.